User: anonymous   Login
Location: Mentone
(34.5413°N, 85.5351°W)
Time: 00:22:34
(UTC-05:00)
Language:

Cosmos 2150 Rocket - Orbit

View from above orbital plane
View from above orbital plane
View from above satellite
View from above satellite

Ground track
Ground track

The orbit data is extracted from the following two-line orbital elements,

1 21419U 91041B   17117.87742623 +.00000047 +00000-0 +26101-4 0  9993
2 21419 074.0422 031.5611 0041462 329.5971 030.2776 14.33861544352990
Epoch (UTC): 27 April 2017 21:03:29
Eccentricity: 0.0041462
inclination: 74.0422°
perigee height: 749 km
apogee height: 808 km
right ascension of ascending node: 31.5611°
argument of perigee: 329.5971°
revolutions per day: 14.33861544
mean anomaly at epoch: 30.2776°
orbit number at epoch: 35299

The dashed part of the orbit path shows where the satellite is in the earth's shadow,  

DLR